+ View the NASA Portal
+ Center for Near-Earth Object Studies
IMPORTANT:
The SSD Announcement email list is now available. Major changes are coming in the near future, including possible hostname and/or URL changes. To be notified of such changes, subscribe to this email list.
Please visit
this page
for more details.
Don't show this message again
JPL Small-Body Database Browser
Search:
[
help
]
357935 (2005 XP111)
Classification:
Main-belt Asteroid
SPK-ID:
2357935
[
Ephemeris
|
Orbit Diagram
|
Orbital Elements
|
Mission Design
|
Physical Parameters
|
Discovery Circumstances
]
[ show orbit diagram ]
Orbital Elements at Epoch 2458600.5 (2019-Apr-27.0) TDB
Reference:
JPL 9
(heliocentric ecliptic J2000)
Element
Value
Uncertainty (1-sigma)
Units
e
.1692889167687492
6.5757e-08
a
2.366921956432532
1.9124e-08
au
q
1.9662283023519
1.5431e-07
au
i
2.120390524849902
8.503e-06
deg
node
1.771517817952547
0.00014622
deg
peri
225.1664704633167
0.00014892
deg
M
184.8796106243017
2.3251e-05
deg
t
p
2459247.506357127367
(2021-Feb-02.00635713)
8.6365e-05
TDB
period
1330.069499024168
3.64
1.612e-05
4.413e-08
d
yr
n
.2706625482834703
3.2803e-09
deg/d
Q
2.767615610513164
2.2361e-08
au
Orbit Determination Parameters
# obs. used (total)
128
data-arc span
4692 days (12.85 yr)
first obs. used
2005-12-01
last obs. used
2018-10-06
planetary ephem.
DE431
SB-pert. ephem.
SB431-N16
condition code
0
norm. resid. RMS
.51199
source
ORB
producer
Otto Matic
solution date
2019-Jul-14 06:58:10
Additional Information
Earth MOID
= .957404 au
Jupiter MOID
= 2.22115 au
T_jup
= 3.527
[ show covariance matrix ]
[
Ephemeris
|
Orbit Diagram
|
Orbital Elements
|
Mission Design
|
Physical Parameters
|
Discovery Circumstances
]
Physical Parameter Table
Parameter
Symbol
Value
Units
Sigma
Reference
Notes
absolute magnitude
H
17.6
n/a
MPO455584
357935 (2005 XP111)
Discovered 2005-Dec-01 by Buie, M. W. at Kitt Peak
Reference:
20130327/Numbers.arc
Last Updated:
2013-03-29
[
Ephemeris
|
Orbit Diagram
|
Orbital Elements
|
Mission Design
|
Physical Parameters
|
Discovery Circumstances
]
2019-Dec-05 15:57 UT
(server date/time)
Site Manager:
Ryan S. Park
Webmaster
:
Alan B. Chamberlin